Weather in Errachidia

Morocco     31°55′11″N   4°26′31″W
temp.,
°C
wind,
m/s
gust,
m/s
humid.,
%
clouds,
%
prec.,
mm/h
press.,
hPa
HPBL,
m
9 may, sun
sun900:00+18ese22245 0.0 101419
03:00+16ne112925 0.0 101311
06:00+16ese112957 0.0 101413
09:00+20s47202 0.0 10131013
12:00+26ssw911150 0.0 10103110
15:00+28ssw8101216 0.0 10073615
18:00+27ssw79105 0.0 10063571
21:00+23s221414 0.0 100811
10 may, mon
mon1000:00+19nne33350 0.0 100945
03:00+16n44430 0.0 100974
06:00+14n55550 0.0 1011211
09:00+19n22401 0.0 1011440
12:00+24sse23220 0.0 10091802
15:00+27s44160 0.0 10072506
18:00+27ssw12151 0.0 10072297
21:00+21n45350 0.0 1011190
11 may, tue
tue1100:00+19n33380 0.0 1012108
03:00+16n33490 0.0 101389
06:00+14n34540 0.0 1015126
09:00+19n11350 0.0 1016565
12:00+24sse33250 0.0 10151696
15:00+26s55200 0.0 10142309
18:00+25sse65191 0.0 10142001
21:00+22ese36221 0.0 1017250
12 may, wed
wed1200:00+20ese22240 0.0 101726
03:00+18ssw11260 0.0 101711
06:00+18sse11260 0.0 101813
09:00+21sse22230 0.0 1018771
12:00+25ssw45202 0.0 10161796
15:00+28s45175 0.0 10142673
18:00+27s651695 0.0 10132209
21:00+24ene232185 0.0 101567
13 may, thu
thu1300:00+22ne332619 0.0 101639
03:00+19ne223120 0.0 101514
06:00+19nne113279 0.0 101612
09:00+22sse232369 0.0 1015947
12:00+26ssw5717100 0.0 10131753
15:00+29ssw671333 0.0 10103046
18:00+28s6613100 0.0 10093380
21:00+25s3416100 0.0 1010101